Location: Brodeslavy
(49.9527°N, 13.5567°E)
Time: 21:37:41
(UTC+00:00)

Cosmos 1954 Rocket - Pass Details

Date: 17 June 2025
Orbit: 749 x 776 km, 74.0° (Epoch: 16 July)

Event Time Altitude Azimuth Distance (km) Brightness Sun altitude
Exits shadow 22:52:59 20° 216° (SW) 1,708 5.4 -16.6°
Maximum altitude 22:56:36 69° 296° (WNW) 814 4.2 -16.6°
Drops below altitude 10° 23:01:48 10° 20° (NNE) 2,292 7.6 -16.6°
Sets 23:04:11 0° 23° (NNE) 3,217 8.5 -16.6°
